Atari, India

3:25 PM IST on December 08, 2016 (GMT +0530)
Amritsar

Weather History for VIAR - January, 2013

Change the Weather History Date:

Thursday, January 10, 2013

  Actual Average Record
Temperature  
Mean Temperature 52 °F -  
Max Temperature 66 °F 59 °F 72 °F (2016)
Min Temperature 37 °F 39 °F 38 °F (2015)
Degree Days  
Heating Degree Days 14    
Growing Degree Days 2 (Base 50)    
Moisture  
Dew Point 45 °F    
Average Humidity 84    
Maximum Humidity 100    
Minimum Humidity 43    
Precipitation  
Precipitation 0.00 in - - ()
Sea Level Pressure  
Sea Level Pressure 30.01 in    
Wind  
Wind Speed 2 mph ()    
Max Wind Speed 9 mph    
Max Gust Speed -    
Visibility 1.7 miles    
Events      
Averages and records for this station are not official NWS values.
T = Trace of Precipitation, MM = Missing Value Source: Averaged Metar Reports

Daily Weather History Graph

Daily Weather History Graph

Search for Another Location

Airport or City:

Trip Planner

Search our weather history database for the weather conditions in past years. The results will help you decide how hot, cold, wet, or windy it might be!

Date:

Astronomy

Jan. 10, 2013 Rise Set
Actual Time 7:31 AM IST 5:45 PM IST
Civil Twilight 7:04 AM IST 6:11 PM IST
Nautical Twilight 6:34 AM IST 6:41 PM IST
Astronomical Twilight 6:05 AM IST 7:11 PM IST
Moon 5:44 AM IST (1/10) 4:22 PM IST (1/10)
Length of Visible Light 11h 06m
Length of Day
10h 13m
Waning Crescent, 3% of the Moon is Illuminated
Jan 10
Waning Crescent
Jan 12
New
Jan 19
First Quarter
Jan 27
Full
Feb 3
Last Quarter

Hourly Weather History & Observations

Time (IST) Temp. Windchill Dew Point Humidity Pressure Visibility Wind Dir Wind Speed Gust Speed Precip Events Conditions
12:00 AM 46.4 °F - 46.4 °F 100% 30.04 in 0.7 mi Calm Calm - N/A   Mist
12:30 AM 44.6 °F - 44.6 °F 100% 30.04 in 0.7 mi Calm Calm - N/A   Mist
1:00 AM 44.6 °F - 44.6 °F 100% 30.04 in 0.7 mi Calm Calm - N/A   Mist
1:30 AM 42.8 °F - 42.8 °F 100% 30.01 in 0.7 mi Calm Calm - N/A   Mist
2:00 AM 42.8 °F - 42.8 °F 100% 30.01 in 0.7 mi Calm Calm - N/A   Mist
2:30 AM 43 °F - 43 °F 99% 30.04 in 1 mi 3.5 mph - -   Mist
2:30 AM 42.8 °F 41.1 °F 42.8 °F 100% 30.01 in 0.7 mi West 3.5 mph - N/A   Mist
3:00 AM 42.8 °F - 42.8 °F 100% 30.01 in 0.7 mi Calm Calm - N/A   Mist
3:30 AM 39.2 °F - 39.2 °F 100% 29.98 in 0.7 mi Calm Calm - N/A   Mist
4:00 AM 42.8 °F - 42.8 °F 100% 29.98 in 0.7 mi Calm Calm - N/A   Mist
4:30 AM 41.0 °F - 41.0 °F 100% 29.98 in 0.7 mi Calm Calm - N/A   Mist
5:00 AM 41.0 °F - 41.0 °F 100% 29.98 in 0.7 mi Calm Calm - N/A   Mist
5:30 AM 41.0 °F - 41.0 °F 100% 29.98 in 0.7 mi Calm Calm - N/A   Mist
6:00 AM 39.2 °F - 39.2 °F 100% 29.98 in 0.7 mi Calm Calm - N/A   Mist
6:30 AM 39.2 °F - 39.2 °F 100% 29.98 in 0.6 mi Calm Calm - N/A   Mist
7:00 AM 39.2 °F - 39.2 °F 100% 30.01 in 0.6 mi Calm Calm - N/A   Mist
7:30 AM 37.4 °F - 37.4 °F 100% 30.01 in 0.6 mi Calm Calm - N/A   Mist
8:00 AM 39.2 °F - 39.2 °F 100% 30.01 in 0.6 mi Calm Calm - N/A   Partly Cloudy
8:30 AM 39.2 °F - 39.2 °F 100% 30.04 in 0.9 mi Calm Calm - N/A   Partly Cloudy
9:00 AM 44.6 °F - 44.6 °F 100% 30.04 in 0.9 mi Calm Calm - N/A   Partly Cloudy
9:30 AM 48.2 °F - 48.2 °F 100% 30.04 in 0.9 mi Calm Calm - N/A   Partly Cloudy
10:00 AM 51.8 °F - 48.2 °F 88% 30.04 in 1.6 mi Calm Calm - N/A   Mist
11:00 AM 55.4 °F - 46.4 °F 72% 30.04 in 2.2 mi NW 5.8 mph - N/A   Haze
11:30 AM 57 °F - 45 °F 54% 30.05 in 2 mi NW 6.9 mph - -   Haze
11:30 AM 57.2 °F - 44.6 °F 63% 30.04 in 2.5 mi NW 6.9 mph - N/A   Haze
12:00 PM 59.0 °F - 46.4 °F 63% 30.04 in 2.5 mi Variable 4.6 mph - N/A   Haze
12:30 PM 60.8 °F - 42.8 °F 52% 30.04 in 2.5 mi NW 5.8 mph - N/A   Haze
1:00 PM 60.8 °F - 42.8 °F 52% 30.01 in 2.5 mi WNW 6.9 mph - N/A   Haze
1:30 PM 62.6 °F - 44.6 °F 52% 30.01 in 2.5 mi NW 8.1 mph - N/A   Haze
2:00 PM 62.6 °F - 44.6 °F 52% 30.01 in 2.5 mi WNW 8.1 mph - N/A   Haze
2:30 PM 64.4 °F - 44.6 °F 49% 29.98 in 2.5 mi West 8.1 mph - N/A   Haze
3:00 PM 64.4 °F - 44.6 °F 49% 29.98 in 3.1 mi West 6.9 mph - N/A   Haze
3:30 PM 66.2 °F - 44.6 °F 46% 29.98 in 3.1 mi WNW 5.8 mph - N/A   Haze
4:00 PM 66.2 °F - 42.8 °F 43% 29.98 in 3.1 mi West 9.2 mph - N/A   Haze
4:30 PM 64.4 °F - 46.4 °F 52% 29.98 in 3.1 mi West 8.1 mph - N/A   Haze
5:00 PM 64.4 °F - 48.2 °F 56% 29.98 in 3.1 mi West 5.8 mph - N/A   Haze
5:30 PM 60.8 °F - 48.2 °F 63% 29.98 in 3.1 mi West 4.6 mph - N/A   Haze
6:00 PM 59.0 °F - 48.2 °F 67% 29.98 in 3.1 mi Variable 1.2 mph - N/A   Haze
6:30 PM 55.4 °F - 48.2 °F 77% 29.98 in 3.1 mi Calm Calm - N/A   Haze
7:00 PM 53.6 °F - 48.2 °F 82% 29.98 in 3.1 mi Calm Calm - N/A   Haze
7:30 PM 51.8 °F - 50.0 °F 94% 29.98 in 3.1 mi Calm Calm - N/A   Haze
8:00 PM 50.0 °F - 50.0 °F 100% 29.98 in 3.1 mi Calm Calm - N/A   Haze
8:30 PM 51 °F - 51 °F 100% 30.00 in 2 mi Calm Calm - -   Mist
8:30 PM 51.8 °F - 51.8 °F 100% 29.98 in 2.5 mi Calm Calm - N/A   Mist
9:30 PM 48.2 °F - 48.2 °F 100% 30.01 in 1.9 mi Calm Calm - N/A   Mist
10:00 PM 48.2 °F - 48.2 °F 100% 30.01 in 1.9 mi Calm Calm - N/A   Mist
10:30 PM 46.4 °F - 46.4 °F 100% 30.01 in 1.9 mi Calm Calm - N/A   Mist
11:00 PM 46.4 °F - 46.4 °F 100% 30.01 in 1.9 mi Calm Calm - N/A   Mist
11:30 PM 46 °F - 46 °F 98% 30.04 in 1 mi Calm Calm - -   Mist
11:30 PM 46.4 °F - 46.4 °F 100% 30.01 in 1.2 mi Calm Calm - N/A   Mist